Location: Hauteroche
(47.5001°N, 4.5810°E)
Time: 01:15:43
(UTC+00:00)

Daily predictions for brighter satellites

Satellite Brightness Start Highest point End
(mag) Time Altitude Azimuth Time Altitude Azimuth Time Altitude Azimuth
Cosmos 1464 Rocket 3.9 00:08:47 60° SSE 00:09:53 74° E 00:16:06 10° NNE
Cosmos 2333 4.2 00:04:15 10° NNW 00:10:00 66° WSW 00:10:14 65° SW
Cosmos 2219 Rocket 2.1 00:04:51 10° NNW 00:10:34 90° ENE 00:11:13 72° SSE
Cosmos 836 Rocket 4.5 00:06:31 10° NNW 00:11:32 67° W 00:11:32 67° W
Lacrosse 4 Rocket 1.8 00:13:01 61° NNE 00:13:01 61° NNE 00:16:33 10° NNE
Cosmos 1782 Rocket 3.8 00:12:54 67° NNE 00:12:54 67° NNE 00:16:42 10° N
Cosmos 1354 Rocket 4.0 00:16:38 65° ESE 00:16:47 66° ESE 00:22:05 10° NNE
Cosmos 2322 Rocket 4.0 00:14:30 10° WNW 00:17:43 17° W 00:17:43 17° W
Cosmos 968 Rocket 3.4 00:19:13 71° W 00:19:28 73° WNW 00:24:37 10° NNE
SL-4 R/B 4.1 00:22:19 16° ENE 00:22:19 16° ENE 00:23:13 10° ENE
Cosmos 1908 Rocket 4.3 00:21:10 45° WNW 00:21:10 45° WNW 00:25:04 10° N
SL-16 R/B 4.5 00:17:15 10° N 00:21:35 22° NE 00:25:54 10° E
COSMOS 2428 2.6 00:22:56 10° NNW 00:28:41 75° WSW 00:29:11 70° SSW
SL-16 R/B 3.4 00:28:37 23° ESE 00:32:08 45° ENE 00:38:02 10° N
CENTAUR R/B 4.1 00:27:59 10° W 00:33:48 34° NNW 00:40:33 10° NE
Nadezhda 4 Rocket 3.9 00:27:29 10° N 00:33:51 86° E 00:35:18 56° SSE
Cosmos 2360 Rocket 3.6 00:29:35 10° NW 00:33:24 23° W 00:33:24 23° W
CZ-2D R/B 3.4 00:31:57 10° NNE 00:36:46 30° E 00:38:05 27° ESE
Cosmos 2034 Rocket 3.9 00:35:41 58° S 00:37:00 84° E 00:43:21 10° N
USA 267 4.4 00:32:53 10° E 00:38:59 43° NNE 00:45:05 10° NW
Okean 2 Rocket 3.2 00:41:46 67° E 00:41:46 67° E 00:46:07 10° NNE
Meteor 2-9 Rocket 4.2 00:41:29 58° WSW 00:42:15 65° WNW 00:47:54 10° N
GEOS 3 Rocket 3.6 00:36:51 10° NE 00:42:15 66° SE 00:42:46 62° SSE
Cosmos 1975 3.9 00:45:31 36° NW 00:45:31 36° NW 00:48:44 10° N
ADEOS II 4.3 00:42:02 10° NE 00:44:58 15° E 00:47:27 11° ESE
Cosmos 1092 Rocket 4.1 00:39:41 10° N 00:45:57 68° E 00:48:01 43° SE
Cosmos 1975 Rocket 3.8 00:41:54 10° NNW 00:45:36 42° WNW 00:45:36 42° WNW
Cosmos 2297 Rocket 3.1 00:45:36 33° SE 00:46:29 35° ESE 00:51:35 10° NE
Cosmos 2219 3.8 00:45:50 39° SE 00:46:38 41° ESE 00:51:52 10° NE
Cosmos 1980 3.9 00:42:04 10° NNW 00:47:45 70° ENE 00:49:51 39° SE
PSLV R/B 4.2 00:43:44 10° N 00:48:12 48° WNW 00:48:26 48° W
Cosmos 2333 Rocket 2.7 00:42:52 10° NW 00:48:11 44° WSW 00:48:11 44° WSW
Sich 1 Rocket 3.7 00:48:43 65° WNW 00:48:43 65° WNW 00:52:53 10° N
Helios 1B rocket 2.8 00:45:09 10° N 00:48:49 59° NW 00:48:49 59° NW
Cosmos 1777 Rocket 4.4 00:49:00 47° SE 00:49:37 49° ESE 00:54:44 10° NNE
Meteor 1-29 4.0 00:49:41 10° NNE 00:52:12 46° N 00:52:12 46° N
UNK 4.5 00:52:22 38° ESE 00:53:39 49° ENE 00:58:10 10° N
Cosmos 44 Rocket 3.2 00:50:13 10° NW 00:55:08 72° WSW 00:55:08 72° WSW
Cosmos 783 Rocket 4.5 00:50:11 10° NNW 00:55:21 61° WSW 00:55:27 61° WSW
Cosmos 1503 Rocket 4.4 00:56:39 47° W 00:57:38 54° WNW 01:02:56 10° NNE
Cosmos 1300 Rocket 3.4 00:57:53 84° N 00:57:53 84° N 01:02:05 10° N
Cosmos 2237 Rocket 2.2 00:52:08 10° NNW 00:57:49 77° ENE 00:59:51 41° SE
DELTA 2 DEB (DPAF) 4.2 01:00:27 65° ESE 01:00:54 72° ENE 01:05:20 10° N
Okean 1 Rocket 4.1 01:01:02 34° ESE 01:01:37 35° E 01:05:35 10° NNE
CZ-4C R/B 3.9 01:04:19 44° ENE 01:04:19 44° ENE 01:07:34 10° N
Spot 1 3.9 01:06:48 85° NW 01:06:48 85° NW 01:10:50 10° NNW
Iridium 51 4.3 01:04:21 10° N 01:08:42 86° NE 01:08:42 86° NE
Cosmos 2151 Rocket 3.4 01:12:29 81° WSW 01:12:39 83° W 01:17:05 10° N
Meteor 1-12 Rocket 4.3 01:11:28 52° SSW 01:12:57 76° WNW 01:19:00 10° N
Timation 2 Rocket 3.8 01:14:34 50° SSW 01:16:21 86° WNW 01:22:27 10° NNE
Cosmos 1707 3.8 01:14:15 10° NNW 01:17:05 34° WNW 01:17:05 34° WNW
In-Cosmos 22 4.1 01:12:29 10° NNW 01:18:06 71° W 01:19:15 54° SSW
Meteor 1-15 Rocket 4.3 01:22:53 44° S 01:24:41 73° E 01:30:17 10° NNE
Cosmos 1805 3.7 01:24:26 48° ESE 01:24:43 50° E 01:28:30 10° NNE
SJ 16-02 2.8 01:25:10 25° SE 01:26:17 29° E 01:30:05 10° NE
DNEPR-1 R/B 4.2 01:20:58 10° NW 01:26:58 73° NE 01:31:05 15° SE
ERBS 3.2 01:23:52 10° NW 01:27:04 46° NNE 01:30:15 10° ESE
Meteor 2-13 Rocket 4.5 01:26:16 10° NNW 01:32:18 64° W 01:34:11 43° SSW
Cosmos 1538 Rocket 3.9 01:29:40 10° NNW 01:34:47 65° WSW 01:35:51 51° SSW
Cosmos 2227 Rocket 2.2 01:33:34 44° S 01:35:21 71° ESE 01:41:01 10° NNE
Cosmos 1025 Rocket 3.9 01:32:39 10° NNW 01:36:08 33° W 01:36:08 33° W
MOZ.5/SAFIR/RUBIN 5/SL-8 4.1 01:36:59 46° WSW 01:37:16 47° W 01:41:53 10° NNW
Resurs 1-4 Rocket 2.0 01:32:29 10° NNE 01:37:48 87° WNW 01:39:24 47° SSW
Cosmos 1674 2.6 01:36:13 10° NNW 01:39:47 71° WNW 01:39:47 71° WNW
Cosmos 1892 Rocket 4.5 01:39:06 10° N 01:43:26 46° ENE 01:46:08 21° SE
Cosmos 1733 3.5 01:42:54 49° SE 01:43:30 57° E 01:47:16 10° NNE
NOSS 0 Rocket 4.5 01:38:13 10° NW 01:43:53 37° WSW 01:44:40 36° WSW
ATLAS 3B R/B 4.2 01:41:20 10° W 01:47:00 29° NNW 01:52:48 10° NNE
Cosmos 2279 Rocket 4.0 01:44:46 34° S 01:47:39 82° E 01:53:53 10° N
Cosmos 1461 4.5 01:47:03 23° SE 01:48:13 26° ESE 01:51:58 10° ENE
Cosmos 1536 Rocket 4.4 01:44:42 10° NNW 01:48:26 33° W 01:48:26 33° W
USA 215 3.4 01:42:11 10° ENE 01:48:38 58° SE 01:51:29 34° SSW
Cosmos 2026 Rocket 4.1 01:43:03 10° NNW 01:48:59 56° W 01:51:08 38° SSW
COBE Rocket 3.8 01:47:33 32° SSE 01:49:44 77° ENE 01:54:24 10° N
Lacrosse 4 Rocket 3.9 01:49:19 11° WNW 01:51:39 15° NW 01:54:07 10° N
Cosmos 1634 Rocket 4.1 01:50:26 37° SW 01:52:52 60° WNW 01:59:04 10° N
FALCON 9 DEB 4.3 01:49:54 10° WNW 01:53:16 43° NNE 01:56:37 10° E
Cosmos 2219 Rocket 4.0 01:50:35 10° WNW 01:52:54 15° W 01:52:54 15° W
Cosmos 2344 4.4 01:45:52 10° NW 01:55:26 66° WSW 02:08:44 10° SSE
SL-24 R/B 4.4 01:53:41 33° SSE 01:55:54 81° E 02:00:54 10° N
Cosmos 2082 4.0 01:53:29 33° S 01:55:55 60° ESE 02:01:27 10° NNE
SL-4 R/B 1.5 01:58:02 27° WNW 01:59:47 80° NNE 02:03:10 10° ESE
Cosmos 2112 Rocket 4.3 01:55:06 10° NNW 02:00:20 65° ENE 02:05:29 10° SSE
Meteor 1-24 Rocket 3.6 01:59:54 10° NNW 02:05:26 90° WSW 02:08:55 23° S
SL-16 R/B 2.1 02:00:43 10° NNW 02:06:27 85° WSW 02:12:09 10° SSE
CBERS-1 4.0 02:01:29 10° NNE 02:06:39 79° ESE 02:09:09 31° S
Meteor 2-5 Rocket 3.7 02:03:31 10° NNW 02:09:08 65° W 02:11:59 29° S
ARIANE 5 R/B 3.4 02:09:03 10° NNE 02:14:05 45° E 02:18:02 16° SSE
H-2A R/B 4.3 02:11:20 10° ESE 02:14:36 23° ENE 02:17:52 10° N
Cosmos 1898 Rocket 4.0 02:11:41 24° S 02:14:41 54° ESE 02:19:47 10° NNE
SL-16 R/B 3.2 02:13:42 29° SW 02:15:50 37° W 02:21:34 10° NNW
NPP 4.0 02:10:44 10° N 02:15:58 52° WNW 02:18:22 30° SW
IDEFIX/ARIANE 42P 4.0 02:12:13 10° NNE 02:16:52 32° E 02:21:30 10° SSE
CZ-2D R/B 2.8 02:11:45 10° N 02:16:57 45° WNW 02:19:24 28° WSW
Cosmos 1680 Rocket 3.4 02:12:53 10° NNW 02:18:09 80° WSW 02:22:58 12° SSE
NOSS 3-1 (C) 3.9 02:17:24 23° S 02:20:31 46° ESE 02:26:27 10° NE
USA 267 3.4 02:15:02 10° ESE 02:21:34 80° NNE 02:28:08 10° NW
AQUA 4.2 02:17:53 10° N 02:22:28 49° WNW 02:24:26 30° SW
Cosmos 1544 Rocket 4.2 02:20:01 19° SSE 02:23:01 53° E 02:27:23 10° NNE
Cosmos 1607 4.0 02:18:46 10° NW 02:25:10 67° WSW 02:31:34 10° SSE
ADEOS II 2.0 02:20:03 10° NNE 02:25:20 83° WNW 02:28:23 26° SSW
Cosmos 990 Rocket 4.1 02:23:20 25° S 02:26:21 73° ESE 02:31:31 10° NNE
Cosmos 1766 4.0 02:26:32 32° WSW 02:27:27 37° WNW 02:31:06 10° N
Cosmos 2263 Rocket 3.7 02:24:09 10° SSE 02:28:52 29° ESE 02:33:35 10° NE
IRS-1D 3.6 02:24:09 10° N 02:29:09 66° WNW 02:31:54 27° SW
Meteor 1-22 Rocket 4.1 02:27:12 28° SSW 02:30:01 68° WNW 02:35:20 10° N
Cosmos 2297 Rocket 2.9 02:27:24 23° WSW 02:30:26 42° NW 02:35:50 10° NNE
Cosmos 2219 4.1 02:27:45 21° WSW 02:30:50 37° NW 02:36:02 10° NNE
Okean 1-7 Rocket 3.5 02:27:37 10° NNW 02:32:02 76° W 02:35:04 20° S
IRS-1C 4.1 02:29:33 10° NNE 02:34:56 87° ESE 02:38:42 20° SSW
Cosmos 1626 2.8 02:34:37 10° NNW 02:38:04 36° W 02:38:57 31° SW
Cosmos 2266 Rocket 4.0 02:32:37 10° NNW 02:38:59 72° W 02:45:02 11° S
Meteor 1-28 Rocket 3.1 02:36:22 18° S 02:39:05 81° WSW 02:42:55 10° NNW
Okean 1 Rocket 4.4 02:38:14 21° W 02:39:36 24° WNW 02:43:10 10° NNW
Cosmos 1655 Rocket 4.2 02:33:42 10° NNW 02:39:48 55° W 02:44:28 17° SSW
Cosmos 2237 Rocket 3.6 02:37:30 10° WNW 02:41:12 18° W 02:41:37 18° WSW
Cosmos 1602 Rocket 4.5 02:37:08 10° N 02:41:24 48° ENE 02:45:36 10° SSE
CZ-4B R/B 3.9 02:37:51 10° N 02:42:22 43° WNW 02:44:51 23° SW
Cosmos 1470 2.7 02:41:43 25° SSW 02:43:54 78° W 02:47:55 10° N
Cosmos 1603 4.3 02:40:15 10° NNW 02:45:58 61° ENE 02:51:37 10° SE
SL-08 R/B 3.4 02:43:55 12° S 02:48:26 63° WSW 02:53:23 10° NNW
USA 229 DEB 3.8 02:48:34 18° SSW 02:53:35 69° SE 03:00:25 10° NE
USA 229 3.8 02:48:39 18° SSW 02:53:40 68° SE 03:00:28 10° NE
Cosmos 2098 Rocket 3.7 02:49:23 10° NNW 02:54:00 52° W 02:59:35 11° SSW
OPS 8737 4.3 02:57:00 24° SW 02:59:00 84° NW 03:02:02 10° NE
ERBS 3.4 03:00:28 10° WNW 03:03:33 23° SW 03:05:51 10° S
Meteor 2-14 Rocket 4.4 02:57:44 10° N 03:03:50 88° W 03:09:55 10° S
NOSS 2-3 (C) 4.3 03:01:07 15° SSW 03:04:31 49° ESE 03:09:18 10° NE
NOSS 3-1 (A) 3.7 03:00:07 14° SSW 03:04:44 58° ESE 03:10:56 10° NE
SJ 16-02 2.4 03:02:10 18° WSW 03:04:46 33° WNW 03:08:48 10° N
CSL-04 DEB 4.2 03:06:00 10° SSE 03:09:55 81° WSW 03:13:52 10° NNW
MSX 4.1 03:07:17 10° NNE 03:13:03 69° ESE 03:18:48 10° S
Cosmos 1809 Rocket 4.5 03:07:03 10° NNW 03:13:03 62° W 03:19:03 10° S
Cosmos 1943 3.3 03:07:36 10° NNW 03:13:15 80° ENE 03:18:52 10° SSE
Cosmos 1626 Rocket 3.6 03:10:05 10° NNW 03:14:21 59° W 03:18:35 10° S
Cosmos 1455 Rocket 3.9 03:11:32 17° SW 03:14:22 34° WNW 03:18:26 10° N
Cosmos 1758 3.9 03:13:24 16° SW 03:16:17 41° WNW 03:20:08 10° N
Resurs 1-4 Rocket 4.0 03:13:51 10° NNW 03:16:52 15° NW 03:19:51 10° W
Spot 4 Rocket 4.0 03:12:30 10° NNE 03:17:40 75° WNW 03:22:48 10° SSW
Meteor 1-21 Rocket 4.1 03:12:35 10° NNW 03:18:09 74° W 03:23:39 10° S
Cosmos 2227 Rocket 3.7 03:15:23 10° W 03:19:58 25° NW 03:24:35 10° N
SeaSat 1 3.0 03:17:01 10° NE 03:21:54 57° ESE 03:26:45 10° SSW
Landsat 5 3.2 03:20:47 10° S 03:24:40 76° WSW 03:28:42 10° NNW
CZ-2C R/B 2.7 03:21:55 10° NNE 03:25:50 82° WNW 03:29:38 10° SSW
Cosmos 1461 3.7 03:23:26 13° WSW 03:27:05 46° NW 03:31:32 10° NNE
CZ-2D R/B 3.7 03:23:26 10° N 03:27:24 50° WNW 03:31:10 10° SW
Cosmos 1048 Rocket 4.5 03:24:52 10° NNW 03:29:59 65° ENE 03:35:07 10° SSE
FALCON 9 DEB 3.3 03:26:59 10° WNW 03:30:22 48° SW 03:33:43 10° SE
Cosmos 2227 4.3 03:24:57 10° SSW 03:30:43 88° NW 03:36:32 10° NNE
USA 215 3.7 03:25:16 10° NE 03:31:41 59° NNW 03:38:05 10° WSW
ATLAS 3B CENTAUR R/B 4.4 03:27:04 11° WSW 03:32:14 16° SSW 03:36:08 10° S
Cosmos 1758 Rocket 3.6 03:28:00 10° N 03:32:20 82° ENE 03:36:40 10° S
ATLAS CENTAUR R/B 3.7 03:29:32 10° SSE 03:32:31 19° ESE 03:35:24 10° ENE
Cosmos 1340 Rocket 3.9 03:29:56 12° SW 03:32:58 28° WNW 03:36:25 10° N
ERS-2 2.1 03:32:21 10° S 03:35:56 61° WSW 03:39:34 10° NNW
Cosmos 724 4.5 03:30:14 10° NW 03:36:05 55° WSW 03:42:01 10° SSE
Cosmos 2228 3.8 03:32:54 10° S 03:37:09 55° E 03:41:28 10° NNE
SL-4 R/B 2.8 03:36:21 10° W 03:38:59 21° SW 03:41:38 10° S
Cosmos 1953 2.7 03:35:21 10° SSW 03:39:12 45° WNW 03:43:07 10° N
Cosmos 1726 2.9 03:38:45 10° SW 03:42:09 34° WNW 03:45:33 10° N
Cosmos 1908 3.2 03:40:23 10° S 03:44:17 84° W 03:48:14 10° N
Meteor 1-16 Rocket 4.1 03:40:07 10° SSW 03:45:27 73° WNW 03:50:59 10° N
Cosmos 2285 Rocket 4.2 03:40:58 10° SSW 03:47:15 79° ESE 03:53:34 10° NNE
SL-16 R/B 3.8 03:46:55 10° WNW 03:49:40 14° W 03:52:25 10° SW
H-2A R/B 2.5 03:46:35 10° SSW 03:50:24 36° W 03:54:14 10° NNW
Cosmos 2150 Rocket 4.1 03:46:53 10° SSW 03:52:02 85° ESE 03:57:18 10° NNE
Cosmos 1937 Rocket 4.4 03:47:33 10° SW 03:52:25 36° WNW 03:57:19 10° N
ARIANE 5 R/B 3.7 03:48:32 10° N 03:52:58 29° WNW 03:57:24 10° WSW
Cosmos 1825 Rocket 3.5 03:50:35 10° NNW 03:54:56 74° W 03:59:14 10° S
IDEFIX/ARIANE 42P 3.3 03:51:44 10° N 03:56:30 38° WNW 04:01:17 10° SW
